CZ-6A DEB, 60842

Orbit data source: Space-Track

CZ-6A DEB, 60842 is space debris in LEO originally from a launch on Tue, 06 Aug 2024 UTC launched from the Taiyaun Space Center, China (TSC). Debris objects in space refer to the collection of defunct objects orbiting the Earth. Examples of debris include non-operational satellites, rocket bodies, and fragments generated from explosions, collisions, or faulty payload assembly.

Loading next visibility...
Identifier
60842, 2024-140HV
Orbit
LEO
Country
Flag of CNCN / PRC
Related business
Manufacturer
SAST
Mission
Spacecraft
Bus & Motor
Unknown
Mass
Unknown
Launch date (UTC)
2024-08-06 (2 years ago)
Launch vehicle
Unknown
Launch site
Taiyaun Space Center, China (TSC)
Object type
Payload
Rocket body
Debris
Shape & HBR
Unknown shape, 0.1 m
Radar Cross Section
Medium (>0.1 m² and <1 m²)

Expand to show TLE details & history
Last TLE update: 11 hours ago

TLE from 11 hours ago
0 CZ-6A DEB
1 60842U 24140HV  26171.39630361  .00004487  00000-0  46474-3 0  9990
2 60842  88.8946 257.3294 0150884 141.0526 220.1685 14.81684459 99824
Epoch: 2026-06-20T09:30Z
TLE epoch observation values (Epoch: 2026-06-20T09:30:40.631Z)
Latitude
-0.00006°
Longitude
-153.95142°
Altitude
708.558 km
Speed
7.458 km/s
True Right ascension
17h 09m 19s
True Declination
0° 00' 00"
Sunlit
Object was in full shadow at epoch
Visualization orbit readout
Latitude
Unknown
Longitude
Unknown
Altitude
Unknown
Speed
Unknown
Apparent Right ascension
Unknown
Apparent Declination
Unknown
Sunlit
N/A
Visualization observer readout
Local Sidereal Time
07:21:29
Azimuth
Unknown
Elevation
Unknown
Doppler factor
Unknown
Orbital elements
Apogee altitude
726.479 km
Perigee altitude
515.271 km
Semi-major axis
6,999.012 km
Eccentricity
0.01509
Inclination
88.8946°
RAAN
257.3294°
Arg. of periapsis
141.0526°
True anomaly
219.06915°
Mean anomaly
220.1685°
Eccentric anomaly
219.61725°
Mean motion
3.70671 °/min
Orbital period
97.12 mins
BSTAR
0.00046474
Loading maneuver chart data...
Computing Atmospheric mass density...
Loading historical data...
Loading historical data...
Loading historical data...
Loading historical data...
Loading historical data...
Loading historical data...
Loading historical data...

Documentation

Showing up to 5 results
|